Regional Weather Roundup
Issued by NWS

Home | Current Version | Previous Version | Text Only | Print | Product List | Glossary Off
Versions: 1 2 3 4 5 6 7 8 9 10 11 12 13 14 15 16 17 18 19 20 21 22 23 24 25 26 27 28 29 30 31 32 33 34 35 36 37 38 39 40 41 42 43 44 45 46 47 48 49 50

000
ASUS43 KFSD 290210
RWRSD

WEATHER ROUNDUP FOR SOUTH DAKOTA
NATIONAL WEATHER SERVICE SIOUX FALLS SD
900 PM CDT SAT MAY 28 2016

NOTE: "FAIR" INDICATES FEW OR NO CLOUDS BELOW 12,000 FEET WITH NO
SIGNIFICANT WEATHER AND/OR OBSTRUCTIONS TO VISIBILITY.


SDZ001>005-009-010-012>017-290300-
NORTHWEST AND NORTH CENTRAL SOUTH DAKOTA

CITY           SKY/WX    TMP DP  RH WIND       PRES   REMARKS
BUFFALO          N/A     66  45  46 NW12      29.91R
FAITH            N/A     62  51  67 NE5       29.95R
MOBRIDGE       CLOUDY    63  55  75 NW6       29.90F
$$

SDZ012>016-024>037-041>051-057-063-072>074-290300-
SOUTHWEST AND SOUTH CENTRAL SOUTH DAKOTA

CITY           SKY/WX    TMP DP  RH WIND       PRES   REMARKS
RAPID CTY ARPT CLOUDY    59  52  77 CALM      29.97S
PIERRE         MOCLDY    64  54  69 N15G28    29.91R
CUSTER         CLOUDY    49  45  86 NW3       30.06R
ELLSWORTH AFB  CLOUDY    60  53  75 W7        29.97R
PHILIP         CLOUDY    66  54  65 CALM      29.92S
PINE RIDGE     CLOUDY    54  48  80 W3        30.01R
WINNER         FAIR      67  56  67 E3        29.92R
$$

SDZ004>011-016>023-039-040-290300-
NORTHEAST SOUTH DAKOTA

CITY           SKY/WX    TMP DP  RH WIND       PRES   REMARKS
ABERDEEN       CLOUDY    65  58  78 SW5       29.88R
WATERTOWN      MOCLDY    62  57  83 NW6       29.87R
BROOKINGS      CLOUDY    61  58  90 W6        29.87R
SISSETON         N/A     62  58  86 NW7       29.84R
$$

SDZ017-020-022-023-036>040-048>070-290300-
SOUTHEAST SOUTH DAKOTA

CITY           SKY/WX    TMP DP  RH WIND       PRES   REMARKS
SIOUX FALLS    CLOUDY    61  58  90 NW6       29.87R
HURON          CLOUDY    62  59  90 CALM      29.88R
CHAMBERLAIN    CLOUDY    67  62  83 CALM      29.92R
MITCHELL       PTCLDY    63  60  90 W3        29.90R
YANKTON        CLOUDY    63  55  77 NW8       29.89R
$$

ABBREVIATIONS USED IN REMARKS
   TC - TEMPERATURE IN CELSIUS
  WCI - WIND CHILL INDEX
   HX - HEAT INDEX
  VSB - VISIBILITY




USA.gov is the U.S. government's official web portal to all federal, state and local government web resources and services.